Flag for Germany Weather past 2 weeks in Vechta, Lower Saxony, Germany

Now
61 °F

Scattered showers. Broken clouds.


Feels Like: 61 °F
Forecast: 51 / 64 °F
Wind: 7 mph from Southwest

Location: Bremen Airport

Current Time: Aug 21, 2014 at 8:11:13 PM

Latest Report: Aug 21, 2014 at 7:20 PM


Visibility: N/A

Pressure: 29.92 "Hg

Humidity: 63%

Dew point: 48 °F

Location of VechtaLocation

Historic Weather in Vechta — Graph

°F

Vechta temperature yesterday

Maximum temperature yesterday: 64 °F (at 1:20 PM)
Minimum temperature yesterday: 48 °F (at 6:20 AM)
Average temperature yesterday: 54 °F

Past Weeks' High & Low Weather Summary

 TemperatureHumidityPressure
High79 °F (Aug 8, 5:20 PM)100% (Aug 7, 7:20 AM)30.01 "Hg (Aug 7, 7:20 AM)
Low45 °F (Aug 21, 5:20 AM)40% (Aug 13, 3:20 PM)29.53 "Hg (Aug 18, 6:20 AM)
Average61 °F77%29.80 "Hg
* Reported Aug 6 6:20 PM — Aug 21 6:50 PM, Vechta, Weather by CustomWeather, © 2014

Note: Actual official high and low records may vary slightly from our data, if they occured in-between our weather recording intervals... More about our weather records

Advertising

Vechta weather history for previous 24 hours

 ConditionsComfort  
Time TempWeatherWind HumidityBarometerVisibility
6:50 PM
Aug 21
63 °FBroken clouds.8 mph56%29.92 "HgN/A
6:20 PM63 °FBroken clouds.10 mph56%29.92 "HgN/A
5:50 PM64 °FPassing clouds.12 mph49%29.92 "HgN/A
5:20 PM64 °FPassing clouds.13 mph49%29.92 "HgN/A
4:50 PM63 °FPassing clouds.14 mph49%29.95 "HgN/A
4:20 PM64 °FPassing clouds.14 mph49%29.95 "HgN/A
3:50 PM63 °FScattered clouds.13 mph52%29.95 "HgN/A
3:20 PM63 °FScattered clouds.14 mph52%29.95 "HgN/A
2:50 PM64 °FScattered clouds.13 mph52%29.95 "HgN/A
2:20 PM63 °FScattered clouds.10 mph52%29.95 "HgN/A
1:50 PM64 °FScattered clouds.10 mph52%29.95 "HgN/A
1:20 PM63 °FScattered clouds.12 mph56%29.98 "HgN/A
12:50 PM63 °FScattered clouds.13 mph52%29.98 "HgN/A
12:20 PM61 °FScattered clouds.13 mph55%29.98 "HgN/A
11:50 AM59 °FScattered clouds.14 mph59%29.98 "HgN/A
11:20 AM59 °FScattered clouds.13 mph68%29.98 "HgN/A
10:50 AM59 °FPassing clouds.10 mph68%29.98 "HgN/A
10:20 AM57 °FPassing clouds.9 mph77%29.98 "HgN/A
9:50 AM55 °FSunny.10 mph82%29.98 "Hg10 mi
9:20 AM54 °FSunny.10 mph88%29.98 "Hg10 mi
8:50 AM52 °FClear.8 mph94%29.98 "Hg4 mi
8:20 AM50 °FClear.7 mph94%29.98 "Hg3 mi
7:50 AM48 °FClear.6 mph100%29.98 "Hg4 mi
7:20 AM48 °FFog.6 mph94%29.98 "Hg3 mi
6:50 AM46 °FFog.7 mph100%29.98 "Hg3 mi
6:20 AM46 °FFog.6 mph93%29.98 "Hg3 mi
5:50 AM45 °FLight fog.5 mph100%29.95 "Hg3 mi
5:20 AM45 °FLight fog.3 mph100%29.95 "Hg3 mi
4:50 AM46 °FFog.1 mph100%29.98 "Hg5 mi
4:20 AM46 °FFog.3 mph93%29.98 "HgN/A
3:50 AM46 °FFog.5 mph93%29.95 "HgN/A
3:20 AM48 °FClear.3 mph94%29.95 "Hg10 mi
2:50 AM48 °FClear.2 mph94%29.95 "Hg10 mi
2:20 AM48 °FPassing clouds.3 mph94%29.98 "HgN/A
1:50 AM48 °FPassing clouds.3 mph94%29.98 "HgN/A
1:20 AM48 °FPassing clouds.3 mph94%29.98 "HgN/A
12:50 AM48 °FClear.6 mph94%29.98 "Hg10 mi
12:20 AM48 °FClear.2 mph87%29.95 "Hg10 mi
11:50 PM
Aug 20
48 °FClear.6 mph87%29.98 "Hg10 mi
11:20 PM50 °FClear.3 mph88%29.95 "Hg10 mi
10:50 PM48 °FClear.3 mph94%29.95 "Hg10 mi
10:20 PM48 °FClear.2 mph94%29.95 "Hg10 mi
9:50 PM50 °FClear.6 mph88%29.95 "Hg10 mi
9:20 PM48 °FPassing clouds.6 mph87%29.95 "HgN/A
8:50 PM52 °FPassing clouds.6 mph82%29.95 "HgN/A
8:20 PM54 °FScattered clouds.7 mph82%29.95 "HgN/A
Weather by CustomWeather, © 2014

See weather overviewHow to use our weather pages